EHI
0 0 0 0 0 0 0 0 0 0 0 0 0 0 0 0 0 1 3 3 3 3 3 3 3 2 1 0 0 0 0 0 0 0 0 0 0 0 0 0 0 1 1
0 0 0 0 0 0 0 0 0 0 0 0 0 0 0 0 1 2 3 3 3 3 2 2 2 1 0 0 0 0 0 0 0 0 0 0 0 0 0 0 0 0 1
1 1 0 0 0 0 1 1 1 0 0 0 0 0 0 0 1 2 2 2 2 2 1 1 1 0 0 0 0 0 0 0 0 0 0 0 0 0 0 0 0 0 0
0 0 0 0 0 1 2 2 2 1 0 0 0 0 0 0 0 1 1 0 1 1 0 0 0 0 0 0 0 0 0 0 0 0 0 0 0 0 0 0 0 0 0
0 0 0 0 0 1 2 3 2 1 0 0 0 0 0 0 0 0 0 0 0 0 0 0 0 0 0 0 0 0 0 0 0 0 0 0 0 0 0 0 0 0 0
0 0 0 0 0 0 1 2 2 1 0 0 0 0 0 0 0 0 0 0 0 0 0 0 0 0 0 0 0 0 0 0 0 0 0 0 0 0 0 0 0 0 0
0 0 0 0 0 0 0 1 1 1 0 0 0 0 0 0 0 0 0 0 0 0 0 0 0 0 0 0 0 0 0 0 0 0 0 0 0 0 0 0 0 0 0
0 0 0 0 0 0 0 0 0 0 0 0 0 0 0 0 0 0 0 0 0 0 0 0 0 0 0 0 0 0 0 0 0 0 0 0 0 0 0 0 0 0 0
0 0 0 0 0 0 0 0 0 0 0 0 0 0 0 0 0 0 0 0 0 0 0 0 0 0 0 0 0 0 0 0 0 0 0 0 0 0 0 0 0 0 0
0 0 0 0 0 0 0 0 0 0 0 0 0 0 0 0 0 0 0 0 0 0 0 0 0 0 0 0 0 0 0 0 0 0 0 0 0 0 0 0 0 0 0
0 0 0 0 0 0 0 0 0 0 0 0 0 0 0 0 0 0 0 0 0 0 0 0 0 0 0 0 0 0 0 0 0 0 0 0 0 0 0 0 0 0 0
0 0 0 0 0 0 0 0 0 0 0 0 0 0 0 0 0 0 0 0 0 0 0 0 0 0 0 0 0 0 0 0 0 0 0 0 0 0 0 0 0 0 0
1 0 0 0 0 0 0 0 0 0 0 0 0 0 0 0 0 0 0 0 0 0 0 0 0 0 0 0 0 0 0 0 0 0 0 0 0 0 0 0 0 0 0
2 1 0 0 0 0 0 0 0 0 0 0 0 0 0 0 0 0 0 0 0 0 0 0 0 0 0 0 0 0 0 0 0 0 0 0 0 0 0 0 0 0 0
2 1 0 0 0 0 0 0 0 0 0 0 0 0 0 0 0 0 0 0 0 0 0 0 0 0 0 0 0 0 0 0 0 0 0 0 0 0 0 0 0 0 0
1 0 0 0 0 0 0 0 0 0 0 0 0 0 0 0 0 0 0 0 0 0 0 0 0 0 0 0 0 0 0 0 0 0 0 0 0 0 0 0 0 0 0
0 0 0 0 0 0 0 0 0 0 0 0 0 0 0 0 0 0 0 0 0 0 0 0 0 0 0 0 0 0 0 0 0 0 0 0 0 0 0 0 0 0 0
0 0 0 0 0 0 0 0 0 0 0 0 0 0 0 0 0 0 0 0 0 0 0 0 0 0 0 0 0 0 0 0 0 0 0 0 0 0 0 0 0 0 0
0 0 0 0 0 0 0 0 0 0 0 0 0 0 0 0 0 0 0 0 0 0 0 0 0 0 0 0 0 0 0 0 0 0 0 0 0 0 0 0 0 0 0
1 1 0 0 0 0 0 0 0 0 0 0 0 0 0 0 0 0 0 0 0 0 0 0 0 0 0 0 0 0 0 0 0 0 0 0 0 0 0 0 0 0 0
2 1 0 0 0 0 0 0 0 0 0 0 0 0 0 0 0 0 0 0 0 0 0 0 0 0 0 0 0 0 0 0 0 0 0 0 0 0 0 0 0 0 0
1 1 0 0 0 0 0 0 0 0 0 0 0 0 0 0 0 0 0 0 0 0 0 0 0 0 0 0 0 0 0 0 0 0 0 0 0 0 0 0 0 0 0
2 1 0 0 0 0 0 0 0 0 0 0 0 0 0 0 0 0 0 0 0 0 0 0 0 0 0 0 0 0 0 0 0 0 0 0 0 0 0 0 0 0 0
3 2 1 1 0 0 0 0 0 0 0 0 0 0 0 0 0 0 0 0 0 0 0 0 0 0 0 0 0 0 0 0 0 0 0 0 0 0 0 0 0 0 0
3 3 3 2 1 0 0 0 0 0 0 0 0 0 0 0 0 0 0 0 0 0 0 0 0 0 0 0 0 0 0 0 0 0 0 0 0 0 0 0 0 0 0
3 3 3 2 1 0 0 0 0 0 0 0 0 0 0 0 0 0 0 0 0 0 0 0 0 0 0 0 0 0 0 0 0 0 0 0 0 0 0 0 0 0 0
Wind_Speed
2 2 3 2 2 2 2 2 2 3 4 4 4 5 5 5 5 5 4 10 11 11 11 11 10 10 10 10 10 9 9 9 9 9 9 9 9 8 8 7 7 7 7
2 3 3 3 2 2 2 2 3 3 3 3 4 3 4 4 4 5 4 6 10 10 10 10 10 10 10 10 9 9 9 9 9 8 9 9 9 9 8 7 7 7 6
3 3 2 2 2 2 3 3 3 3 3 3 3 3 3 3 3 4 4 3 4 7 9 10 9 9 9 9 9 9 9 9 9 8 8 8 8 8 8 7 7 6 6
4 3 2 2 2 2 2 2 2 3 3 3 3 2 3 2 3 3 3 3 3 4 6 8 9 8 8 9 9 9 8 8 8 7 7 7 7 7 7 7 7 7 7
3 3 2 1 2 2 2 2 3 3 3 3 2 2 2 2 2 3 3 3 4 4 4 5 8 8 8 8 8 7 7 7 7 7 6 6 6 6 6 6 6 6 7
3 3 1 2 3 2 2 2 3 2 1 1 2 3 2 2 2 3 3 3 3 4 4 4 3 4 6 7 6 7 6 7 7 7 6 6 6 6 6 5 5 5 6
2 2 1 2 2 2 2 2 2 2 1 1 2 2 2 2 2 2 2 2 2 3 3 3 3 3 3 5 6 5 6 6 6 6 6 6 5 5 5 5 5 4 5
1 2 2 2 3 2 1 1 2 1 1 1 1 1 1 2 2 1 2 2 2 2 2 3 3 3 3 2 3 5 6 6 6 6 6 5 5 5 5 5 6 5 5
1 1 1 2 2 2 2 1 2 2 1 1 1 1 1 1 0 1 1 2 2 1 1 1 2 3 4 3 3 4 6 6 6 5 5 5 4 4 5 5 5 5 5
2 1 1 1 2 2 2 2 2 2 2 1 1 0 1 2 2 0 1 1 1 1 1 1 2 3 3 3 4 5 5 5 5 5 4 5 4 4 4 4 4 4 4
2 2 2 2 1 2 3 2 2 2 1 1 1 0 1 0 0 2 1 1 1 0 1 1 1 2 3 3 3 4 5 4 4 4 4 4 4 4 4 4 4 4 4
2 3 2 2 2 2 2 3 2 2 1 1 1 1 1 1 1 1 1 1 1 1 0 1 1 2 2 3 4 5 5 4 3 4 4 5 5 4 3 3 3 3 4
2 3 2 2 2 2 2 2 2 2 2 2 2 1 1 1 1 1 1 1 0 1 0 0 1 2 2 3 3 6 4 4 3 3 3 3 4 4 4 3 3 3 3
2 2 2 3 3 2 2 2 2 2 2 2 2 1 1 1 1 1 1 2 0 1 0 1 0 1 2 3 4 5 3 4 3 2 2 2 2 3 3 3 3 2 2
1 2 2 2 2 2 2 2 2 2 2 2 2 2 1 1 1 1 1 2 2 1 2 1 0 1 1 2 4 3 3 4 4 3 2 1 1 2 2 2 2 2 3
2 1 1 1 2 2 2 2 2 2 3 2 2 2 2 1 1 1 1 1 1 2 1 1 1 1 1 2 4 3 3 5 5 3 3 2 2 1 1 1 1 2 2
2 2 2 1 1 1 2 1 2 2 2 2 2 2 3 2 2 1 1 1 1 1 1 1 0 1 1 1 2 2 2 3 3 5 4 3 3 2 1 0 0 1 1
2 2 2 2 1 1 1 1 1 2 2 3 3 3 3 2 3 2 1 2 2 2 2 2 1 1 2 2 3 3 2 3 2 4 5 4 4 3 2 2 1 1 1
2 2 2 2 2 1 1 1 1 1 2 2 2 2 3 3 3 2 2 2 2 2 2 2 2 1 1 2 2 2 2 1 2 4 4 4 4 4 4 3 3 2 1
3 3 3 2 2 1 1 1 1 1 2 2 2 2 2 2 3 3 2 2 2 1 1 1 1 1 1 2 2 2 1 1 2 2 3 4 4 5 5 4 4 3 3
1 2 2 2 2 2 1 1 1 1 1 2 2 2 2 2 2 3 2 3 2 2 2 2 2 1 1 1 2 2 2 2 2 2 2 2 2 2 3 4 5 5 5
1 1 2 2 2 1 1 1 0 1 1 2 2 2 2 2 2 2 3 4 4 4 3 3 2 3 3 3 2 2 2 2 2 2 2 2 2 3 3 3 5 7 7
1 1 2 2 2 2 1 0 1 1 2 2 2 2 2 1 1 1 2 2 2 3 5 4 3 4 4 3 3 3 3 2 3 2 2 2 2 2 3 4 7 8 7
1 1 1 2 2 1 2 1 2 2 2 2 2 2 1 1 1 0 1 1 2 3 4 3 4 4 4 4 4 4 4 3 1 1 2 2 2 2 2 2 6 8 8
1 1 1 1 1 1 2 2 1 2 2 2 2 1 1 1 2 1 0 1 2 3 3 4 4 4 4 3 2 1 1 2 2 2 1 2 2 1 1 1 3 7 7
1 1 1 1 2 1 1 1 2 1 2 2 1 1 2 2 2 1 1 1 3 3 2 2 2 3 3 3 3 3 3 3 2 2 2 2 2 1 1 1 1 2 3
Wind_Direction
94 100 97 86 80 69 63 45 54 66 66 58 63 73 76 83 89 90 86 84 84 85 84 85 83 80 76 73 71 70 70 69 65 64 65 63 60 61 62 60 59 59 60
85 82 90 83 72 66 65 71 77 87 84 78 66 61 74 81 85 98 107 89 83 84 84 84 83 79 76 73 70 68 67 66 66 67 67 63 59 59 58 57 56 54 53
80 83 85 86 80 66 65 61 61 75 92 93 88 76 71 75 80 91 107 114 98 87 88 86 84 80 77 74 71 68 67 65 64 65 65 63 60 57 54 58 58 53 52
81 75 75 81 83 71 67 72 67 67 69 73 68 64 70 71 76 93 106 113 114 105 94 91 86 81 76 72 70 69 66 65 64 63 63 61 61 58 55 56 55 53 51
88 90 78 69 83 78 68 70 67 68 68 70 78 76 66 57 45 74 85 99 110 117 116 109 96 85 80 75 70 70 67 64 60 58 60 58 57 56 55 54 54 52 50
88 95 106 89 79 82 70 74 81 71 71 81 74 70 75 78 58 56 57 69 87 110 119 123 120 97 85 76 72 71 67 65 59 53 51 52 51 52 52 49 53 53 52
102 108 89 92 83 87 92 88 93 84 60 73 76 52 30 60 85 84 72 66 73 93 108 114 126 124 104 78 63 68 66 60 56 51 48 45 43 46 48 47 52 54 50
99 119 138 125 119 110 100 99 101 91 39 55 97 88 50 13 10 79 105 101 83 72 81 99 104 104 112 111 71 67 64 60 57 51 48 45 45 44 50 50 50 53 55
140 135 119 129 146 147 143 142 124 126 144 314 53 105 120 144 306 357 65 92 87 71 67 80 99 100 100 101 90 67 65 60 53 48 46 46 54 52 51 48 46 48 54
154 147 150 178 171 156 158 175 153 153 152 222 315 21 144 137 136 12 330 46 109 122 124 80 84 88 94 95 93 88 81 66 55 47 47 44 47 49 48 44 43 45 52
171 175 177 196 192 172 175 173 153 160 173 187 194 265 20 20 184 145 211 281 328 307 126 121 108 106 102 104 106 98 95 77 60 48 42 39 37 39 44 40 36 39 46
189 193 190 187 187 186 188 173 167 175 191 204 212 188 164 196 223 152 172 217 231 260 124 113 111 122 125 111 118 117 115 100 76 56 46 37 29 26 31 30 29 36 44
191 194 186 185 195 198 188 162 171 181 194 201 210 204 198 241 215 168 140 182 266 277 181 150 158 146 140 124 130 134 128 126 110 80 58 42 31 22 19 17 16 24 37
189 189 188 190 193 185 185 171 174 194 193 193 221 208 200 253 253 187 158 141 149 294 274 249 204 162 145 145 159 153 151 150 142 125 97 66 43 32 22 12 8 12 27
181 177 184 197 186 179 180 169 181 203 202 201 206 210 202 220 235 232 160 150 163 207 251 233 217 218 163 148 162 165 159 156 152 156 152 129 83 53 31 22 23 24 29
151 161 189 190 183 173 171 186 193 210 205 205 197 211 216 203 206 208 188 203 181 182 223 232 215 196 176 172 168 169 168 162 171 174 177 172 162 113 61 35 42 36 32
165 177 187 178 173 172 163 168 210 221 210 208 198 210 227 204 192 201 189 196 227 159 197 270 249 179 172 179 145 174 171 159 180 185 185 184 181 178 172 161 115 68 36
166 173 176 171 170 164 154 167 209 232 230 224 215 207 219 211 200 202 193 203 210 205 183 212 232 208 202 187 171 190 186 168 172 190 192 191 193 191 187 191 200 204 216
173 173 170 175 173 166 171 185 198 229 251 245 236 223 222 206 202 202 198 214 214 219 187 190 217 212 207 184 171 200 195 181 191 183 195 200 201 201 201 205 210 207 204
174 177 179 176 172 168 184 191 198 215 242 259 261 245 233 215 207 201 204 211 198 204 214 194 205 208 201 195 167 191 214 213 213 191 193 196 205 211 211 216 221 221 214
183 178 170 165 167 170 186 139 208 226 258 275 276 269 248 225 214 205 201 202 194 194 201 199 213 218 213 186 205 203 199 216 225 205 191 204 198 204 213 224 225 223 216
180 185 174 169 165 163 101 79 2 245 240 253 260 273 266 251 233 217 208 198 193 197 200 200 213 212 222 209 201 198 189 191 252 235 183 221 189 205 209 207 209 206 208
161 182 189 174 167 169 152 175 283 268 261 257 253 257 277 279 272 226 229 214 220 230 212 199 207 222 217 210 199 209 206 198 217 217 164 238 222 218 216 206 199 199 201
167 187 206 200 177 178 170 192 265 261 270 263 256 248 249 264 296 302 245 228 233 242 230 216 215 225 217 209 201 204 203 199 220 221 155 214 236 234 233 209 199 197 201
181 187 204 211 184 197 172 182 194 254 272 273 264 281 296 265 310 14 333 247 250 257 244 234 222 225 225 226 200 159 176 166 236 252 200 183 217 227 239 224 209 200 200
206 201 210 205 187 190 161 153 183 240 274 291 301 300 317 325 337 342 265 241 255 260 251 249 248 248 233 230 219 194 183 183 197 236 224 176 199 170 258 261 213 202 206